GPS BIIR-10 (PRN 22)

Last updated on Jan. 27, 2020, 4:39 a.m. UTC

1 28129U 03058A   20025.54621393 -.00000038  00000-0  00000-0 0  9992
2 28129  53.2582 117.9097 0072419 288.6094  70.6233  2.00572978117968
UTC
Height (km)
Latitude
Longitude
Inclination
Orbital Period
UTC large
Height (km)
Speed (km/s)
/
Latitude / Longitude
Inclination (degrees)
Orbital Period (minutes)
Azimuth
Elevation
Range (km)
Doppler Factor
iOS Compass Heading
iOS Angle

Next 30 passes for location: Hong Kong

Rise time Rise Azimuth (degrees) Set time Set Azimuth (degrees) Duration Max altitude (degrees)

No matching passes for this satellites